Location: Unspecified
(0.0000°N, 0.0000°E)
Time: 09:10:49
(UTC+00:00)

A-11 Canister half - Pass Details

Date: 13 June 2024
Orbit: 1515 x 1684 km, 47.2° (Epoch: 23 July)

Event Time Altitude Azimuth Distance (km) Brightness Sun altitude
Rises 03:13:08 0° 346° (NNW) 4,684 11.7 -37.7°
Reaches altitude 10° 03:17:16 10° 2° (N) 3,684 11.3 -36.8°
Maximum altitude 03:23:46 21° 47° (NE) 2,899 11.0 -35.4°
Drops below altitude 10° 03:30:12 10° 92° (E) 3,670 11.6 -34.0°
Sets 03:34:14 0° 108° (ESE) 4,661 12.1 -33.1°
